[[{"header":{"parameterUnit":"m.s-1","parameterCategory":1,"la1":30.2991,"la2":30.254,"lo1":-89.0895,"lo2":-89.0444,"dy":0.0017,"dx":0.0017,"nx":28,"ny":28,"refTime":"2025-01-10T09:00:00:Z","depth":0,"parameterNumber":2,"parameterNumberName":"U-component_of_WINDS"},"data":[0,0,0,0,0,0,0,0,0,0,0,0,0,0,0,0,0,0,0,0,0,0,0,0,0,0,0,0,0,0,0,0,0,0,0,0,0,0,0,0,0,0,0,0,0,0,0,0,0,0,0,0,0,0,0,0,0,0,4.7326,4.7327,0,4.7397,4.7398,4.7399,4.7327,4.7324,4.7321,4.7318,4.7394,4.7399,4.7403,0,0,0,0,0,0,0,0,0,0,0,0,0,4.7133,4.7137,4.7326,4.7327,4.7328,4.7397,4.7398,4.7399,4.7327,4.7324,4.732,4.7317,4.7393,4.7398,4.7404,0,0,0,0,0,0,0,0,0,0,0,0,0,4.7212,4.7139,4.7326,4.73,4.7298,4.7397,4.7398,4.7399,4.7328,4.7324,4.7319,4.7315,4.7391,4.7398,4.7405,4.7532,0,0,4.7426,4.7429,0,0,0,0,0,0,0,0,4.7208,4.7219,4.7303,4.7302,4.73,4.7349,4.7358,4.7444,4.7329,4.7317,4.7318,4.7313,4.7383,4.739,4.7413,4.7536,4.7539,4.7426,4.7431,4.7434,4.7436,0,0,0,0,0,0,0,4.7202,4.7216,4.7354,4.7304,4.7303,4.7287,4.7293,4.7374,4.7373,4.7318,4.7312,4.7322,4.7381,4.7406,4.7414,4.754,4.7426,4.7432,4.7437,4.744,4.7777,4.7781,0,0,0,0,0,0,4.7199,4.7212,4.7352,4.7356,4.7243,4.7294,4.7301,4.7337,4.7372,4.7373,4.7325,4.7318,4.7396,4.7406,4.7416,4.7571,4.7434,4.744,4.7444,4.7772,4.7778,4.7783,0,0,0,0,0,0,4.7195,4.7212,4.7349,4.7283,4.7299,4.7302,4.7343,4.7341,4.7366,4.7377,4.7377,4.7351,4.7393,4.7407,4.7505,4.7572,4.7443,4.745,4.7766,4.7774,4.778,4.7879,0,0,0,0,0,0,4.719,4.7211,4.7258,4.7284,4.7303,4.7435,4.7347,4.7346,4.7378,4.7369,4.7401,4.7403,4.7391,4.7495,4.7512,4.7579,4.7455,4.776,4.777,4.7778,4.787,4.7889,4.7905,0,0,0,0,0,4.7183,4.7283,4.7261,4.7278,4.7361,4.7438,4.7449,4.7433,4.7383,4.7432,4.744,4.7402,4.7562,4.7506,4.7524,4.7595,4.7756,4.7767,4.7777,4.7862,4.7885,4.7904,0,0,0,0,0,0,4.7265,4.7286,4.7261,4.7372,4.7404,4.7426,4.7486,4.7457,4.7505,4.7495,4.7474,4.7482,4.7587,4.7601,4.7537,4.7723,4.7651,4.7666,4.7709,4.7731,4.7748,4.7743,4.7461,0,0,0,0,0,4.7295,4.7355,4.7371,4.7467,4.7484,4.7483,4.7516,4.7501,4.7534,4.7547,4.7562,4.7597,4.7655,4.7694,4.7748,4.7872,4.788,4.793,4.7948,4.7962,4.7975,4.8045,4.8069,4.7818,4.7818,4.7818,0,0,4.7359,4.7378,4.7417,4.7484,4.7507,4.7571,4.7495,4.7565,4.7613,4.7558,4.7652,4.7665,4.7702,4.7815,4.7865,4.783,4.8047,4.7976,4.7987,4.7993,4.8059,4.8082,4.8103,4.7825,4.7824,4.7823,0,0,4.7509,4.7529,4.7612,4.7638,4.7674,4.7673,4.7693,4.7721,4.7727,4.7821,4.7783,4.7841,4.7941,4.797,4.7998,4.8165,4.8132,4.8183,4.8275,4.8343,4.8363,4.838,4.8441,4.8463,4.8196,4.8197,4.8197,0,4.7584,4.7678,4.7659,4.7733,4.7765,4.7719,4.7805,4.7831,4.7884,4.7908,4.7868,4.7995,4.8017,4.8137,4.8178,4.8202,4.8227,4.8179,4.8361,4.8378,4.8394,4.8453,4.8476,4.8203,4.8202,4.8201,4.8201,0,4.777,4.7836,4.79,4.7952,4.7991,4.8071,4.8067,4.8109,4.8092,4.8097,4.8196,4.8221,4.8281,4.8308,4.8292,4.8428,4.8405,4.8364,4.8292,4.8425,4.8479,4.8501,4.8211,4.8209,4.8207,4.8206,0,0,4.7969,4.8013,4.8037,4.8061,4.81,4.8152,4.8232,4.829,4.8328,4.8368,4.8435,4.8524,4.8487,4.8519,4.8506,4.8567,4.87,4.8518,4.8519,4.8552,4.8854,4.8885,4.8911,4.8679,4.8683,4.8686,4.8851,0,4.8121,4.8258,4.8245,4.8376,4.8439,4.8398,4.8468,4.8501,4.8509,4.8565,4.8573,4.8637,4.8582,4.8602,4.866,4.8671,4.876,4.8659,4.8744,4.8747,4.8736,4.8939,4.8972,4.9126,4.8872,4.8876,4.8878,0,4.8316,4.8362,4.8499,4.8532,4.8558,4.862,4.8675,4.8729,4.8767,4.8768,4.8807,4.8785,4.8868,4.8796,4.8912,4.8844,4.8878,4.889,4.8896,4.8903,4.8821,4.8953,4.9174,4.9198,4.8911,4.8909,4.8906,0,4.845,4.8547,4.8642,4.8664,4.8704,4.875,4.8769,4.8803,4.884,4.8889,4.8914,4.8972,4.9004,4.9051,4.9047,4.8994,4.9167,4.9093,4.9172,4.9173,4.9209,4.9207,4.944,4.9232,4.9231,4.9231,4.923,0,4.8621,4.8707,4.8703,4.8762,4.8858,4.8845,4.8941,4.8955,4.8987,4.9049,4.9018,4.9078,4.9069,4.9131,4.9128,4.9227,4.9241,4.9247,4.9245,4.925,4.9249,4.9272,4.9261,4.9237,4.9235,4.9234,4.9233,0,4.8786,4.8787,4.8889,4.8919,4.8929,4.8999,4.9026,4.9083,4.9089,4.9169,4.9187,4.9198,4.9268,4.927,4.935,4.9349,4.947,4.9456,4.9457,4.9454,4.9534,4.9527,4.979,4.9825,4.9593,4.9595,4.9597,0,4.8895,4.896,4.8998,4.9038,4.906,4.9124,4.9162,4.9153,4.9195,4.9246,4.9298,4.9365,4.9419,4.9535,4.9551,4.9613,4.9601,4.969,4.9611,4.9614,4.9605,4.9601,4.9609,4.9705,4.9707,4.9709,4.9711,0,4.9089,4.9087,4.9143,4.9201,4.9248,4.9293,4.9335,4.9369,4.9365,4.9415,4.9486,4.9528,4.9612,4.9681,4.9743,4.9765,4.9739,4.9736,4.9758,4.9763,4.9762,4.9765,4.95,4.973,4.9728,4.9727,4.9725,4.9725,4.9231,4.9288,4.9324,4.9389,4.942,4.946,4.9516,4.953,4.959,4.9656,4.9648,4.9729,4.977,4.985,4.9878,4.9943,4.9912,4.9944,4.9952,4.996,4.9969,4.9752,4.9954,4.9953,4.9953,4.9952,4.9952,0,4.9424,4.9447,4.9506,4.9566,4.9618,4.9589,4.9634,4.968,4.9751,4.9791,4.9845,4.993,4.9998,5.002,5.0087,5.0135,5.0125,5.0153,5.0149,5.0155,4.9992,4.9967,5.016,5.016,5.016,5.016,5.016,5.0159,4.9531,4.9627,4.9631,4.9744,4.9766,4.9844,4.9873,4.9912,4.9943,5.0039,5.0095,5.0109,5.0144,5.0213,5.0275,5.028,5.0307,5.034,5.0341,5.0187,5.0166,5.0146,5.0123,5.0345,5.0346,5.0499,5.05,5.0501]},{"header":{"parameterUnit":"m.s-1","parameterCategory":1,"la1":30.2991,"la2":30.254,"lo1":-89.0895,"lo2":-89.0444,"dy":0.0017,"dx":0.0017,"nx":28,"ny":28,"refTime":"2025-01-10T09:00:00:Z","depth":0,"parameterNumber":3,"parameterNumberName":"V-component_of_WINDS"},"data":[0,0,0,0,0,0,0,0,0,0,0,0,0,0,0,0,0,0,0,0,0,0,0,0,0,0,0,0,0,0,0,0,0,0,0,0,0,0,0,0,0,0,0,0,0,0,0,0,0,0,0,0,0,0,0,0,0,0,-3.2358,-3.2359,0,-3.2412,-3.2413,-3.2413,-3.2429,-3.2429,-3.2429,-3.2428,-3.2482,-3.2483,-3.2485,0,0,0,0,0,0,0,0,0,0,0,0,0,-3.2268,-3.2269,-3.2358,-3.2359,-3.2359,-3.2412,-3.2413,-3.2413,-3.2429,-3.2429,-3.2428,-3.2428,-3.2481,-3.2483,-3.2485,0,0,0,0,0,0,0,0,0,0,0,0,0,-3.2313,-3.227,-3.2358,-3.2374,-3.2376,-3.2412,-3.2413,-3.2414,-3.2429,-3.2429,-3.2428,-3.2428,-3.2481,-3.2483,-3.2486,-3.2509,0,0,-3.2493,-3.2494,0,0,0,0,0,0,0,0,-3.231,-3.2316,-3.2371,-3.2373,-3.2375,-3.2413,-3.24,-3.2446,-3.2429,-3.2409,-3.2428,-3.2428,-3.2459,-3.2464,-3.2475,-3.2512,-3.2514,-3.2493,-3.2495,-3.2496,-3.2497,0,0,0,0,0,0,0,-3.2307,-3.2314,-3.2379,-3.2371,-3.2374,-3.2378,-3.2384,-3.2409,-3.2436,-3.2411,-3.2412,-3.2418,-3.246,-3.2472,-3.2476,-3.2515,-3.2493,-3.2496,-3.2497,-3.2498,-3.2575,-3.2576,0,0,0,0,0,0,-3.2301,-3.2311,-3.2378,-3.2381,-3.2341,-3.238,-3.2386,-3.2401,-3.2435,-3.244,-3.2418,-3.2419,-3.2468,-3.2473,-3.2478,-3.2508,-3.2496,-3.2498,-3.25,-3.2575,-3.2575,-3.2576,0,0,0,0,0,0,-3.2299,-3.2307,-3.2376,-3.2346,-3.2355,-3.2382,-3.2399,-3.2403,-3.2414,-3.2441,-3.2446,-3.2426,-3.2468,-3.2474,-3.2502,-3.251,-3.25,-3.2502,-3.2574,-3.2575,-3.2576,-3.2569,0,0,0,0,0,0,-3.2297,-3.2306,-3.2316,-3.2347,-3.2357,-3.2399,-3.2399,-3.2404,-3.2419,-3.242,-3.2449,-3.2454,-3.2468,-3.2498,-3.2504,-3.2514,-3.2504,-3.2573,-3.2574,-3.2575,-3.2569,-3.257,-3.257,0,0,0,0,0,-3.2293,-3.2312,-3.2316,-3.2324,-3.237,-3.2399,-3.2405,-3.2422,-3.242,-3.2429,-3.2447,-3.2453,-3.2508,-3.2501,-3.2508,-3.2518,-3.2573,-3.2574,-3.2575,-3.2568,-3.2569,-3.257,0,0,0,0,0,0,-3.228,-3.2316,-3.2322,-3.235,-3.2372,-3.2402,-3.2415,-3.2422,-3.2444,-3.2444,-3.2463,-3.2469,-3.2495,-3.251,-3.25,-3.2543,-3.2541,-3.2544,-3.2533,-3.2534,-3.2535,-3.2531,-3.2506,0,0,0,0,0,-3.2281,-3.2303,-3.2332,-3.2355,-3.2365,-3.2388,-3.2402,-3.2412,-3.2435,-3.2444,-3.2464,-3.2485,-3.2508,-3.2522,-3.2544,-3.2571,-3.2578,-3.2582,-3.2583,-3.2583,-3.2585,-3.2601,-3.2603,-3.258,-3.258,-3.258,0,0,-3.2282,-3.2304,-3.2317,-3.2353,-3.2371,-3.2392,-3.2395,-3.2418,-3.2434,-3.2447,-3.2475,-3.249,-3.2515,-3.2543,-3.2556,-3.2555,-3.2593,-3.2585,-3.2585,-3.2587,-3.2602,-3.2604,-3.2606,-3.2581,-3.2581,-3.258,0,0,-3.2296,-3.2314,-3.2335,-3.2353,-3.2381,-3.2396,-3.2401,-3.243,-3.2441,-3.2469,-3.2479,-3.2499,-3.2537,-3.2554,-3.2568,-3.2589,-3.2596,-3.2596,-3.26,-3.2615,-3.2617,-3.2619,-3.2626,-3.2628,-3.2598,-3.2598,-3.2598,0,-3.2293,-3.2327,-3.2345,-3.2367,-3.2383,-3.2397,-3.2418,-3.2434,-3.2467,-3.2477,-3.2477,-3.2525,-3.2543,-3.2575,-3.258,-3.2591,-3.2597,-3.2592,-3.2615,-3.2617,-3.2619,-3.2626,-3.2629,-3.2598,-3.2598,-3.2598,-3.2598,0,-3.2323,-3.2346,-3.2359,-3.2392,-3.2409,-3.243,-3.2451,-3.2466,-3.2476,-3.2491,-3.2519,-3.2541,-3.2568,-3.2577,-3.2586,-3.261,-3.2609,-3.2612,-3.2609,-3.2621,-3.2628,-3.2631,-3.2597,-3.2597,-3.2597,-3.2597,0,0,-3.2329,-3.2371,-3.2376,-3.2391,-3.2422,-3.244,-3.2463,-3.249,-3.2502,-3.2525,-3.2543,-3.2576,-3.2579,-3.2594,-3.2606,-3.2619,-3.2634,-3.262,-3.2621,-3.2622,-3.2662,-3.266,-3.2663,-3.2639,-3.2639,-3.264,-3.266,0,-3.2346,-3.2387,-3.2404,-3.2437,-3.2458,-3.2472,-3.2491,-3.2512,-3.2527,-3.2548,-3.2564,-3.2587,-3.2588,-3.2598,-3.2612,-3.2629,-3.2642,-3.2628,-3.2656,-3.2657,-3.2649,-3.2667,-3.2664,-3.2682,-3.2663,-3.2663,-3.2664,0,-3.2372,-3.2395,-3.243,-3.2459,-3.2469,-3.2486,-3.2512,-3.2531,-3.2556,-3.2566,-3.2584,-3.2595,-3.2618,-3.2615,-3.2648,-3.2638,-3.2651,-3.2661,-3.2662,-3.2665,-3.2661,-3.267,-3.2688,-3.2691,-3.2668,-3.2668,-3.2668,0,-3.2373,-3.2412,-3.2439,-3.2451,-3.2486,-3.2498,-3.2512,-3.2537,-3.2552,-3.2575,-3.2585,-3.261,-3.2624,-3.2643,-3.266,-3.2656,-3.2691,-3.2689,-3.27,-3.27,-3.2706,-3.2706,-3.2727,-3.2715,-3.2715,-3.2715,-3.2715,0,-3.239,-3.2411,-3.244,-3.2456,-3.2479,-3.2499,-3.2522,-3.2538,-3.2559,-3.2578,-3.2591,-3.2609,-3.2631,-3.2652,-3.2665,-3.269,-3.2697,-3.2705,-3.2708,-3.2704,-3.2703,-3.2712,-3.2711,-3.2715,-3.2715,-3.2715,-3.2715,0,-3.2395,-3.2415,-3.2445,-3.2475,-3.2484,-3.25,-3.2526,-3.2542,-3.2558,-3.2582,-3.2589,-3.2613,-3.2638,-3.2657,-3.2689,-3.2699,-3.2725,-3.2729,-3.2717,-3.2719,-3.2728,-3.2727,-3.2756,-3.2761,-3.2746,-3.2746,-3.2746,0,-3.2405,-3.2421,-3.2454,-3.2468,-3.2483,-3.2505,-3.2521,-3.2541,-3.2557,-3.2586,-3.2598,-3.2624,-3.2646,-3.2685,-3.2705,-3.273,-3.2735,-3.2743,-3.2738,-3.2733,-3.2735,-3.2734,-3.2735,-3.2743,-3.2744,-3.2744,-3.2744,0,-3.242,-3.2429,-3.2452,-3.2478,-3.2496,-3.2518,-3.2539,-3.255,-3.2574,-3.2591,-3.2617,-3.2633,-3.2667,-3.2692,-3.2719,-3.2734,-3.2743,-3.2745,-3.2749,-3.2744,-3.2737,-3.2741,-3.2719,-3.2744,-3.2744,-3.2744,-3.2744,-3.2744,-3.2428,-3.2443,-3.2469,-3.2493,-3.2512,-3.2532,-3.2548,-3.2566,-3.2588,-3.2617,-3.2627,-3.2654,-3.2678,-3.2715,-3.2731,-3.2752,-3.2752,-3.2757,-3.2759,-3.276,-3.2759,-3.2733,-3.2757,-3.2757,-3.2757,-3.2757,-3.2757,0,-3.2444,-3.2461,-3.2484,-3.2514,-3.2533,-3.254,-3.2564,-3.258,-3.2603,-3.2625,-3.2646,-3.2676,-3.2701,-3.2724,-3.275,-3.2762,-3.2767,-3.2768,-3.2767,-3.2771,-3.2757,-3.2752,-3.2764,-3.2764,-3.2764,-3.2764,-3.2764,-3.2764,-3.2455,-3.2481,-3.2493,-3.2529,-3.2546,-3.2572,-3.2586,-3.2604,-3.2622,-3.2654,-3.2675,-3.269,-3.2712,-3.274,-3.2763,-3.2769,-3.2778,-3.2779,-3.2786,-3.2773,-3.2772,-3.2771,-3.2765,-3.278,-3.278,-3.2797,-3.2797,-3.2798]}]]